Total_Precipitation_Accumulation
0.00 0.00 0.01 0.01 0.01 0.01 0.00 0.01 0.01 0.02 0.02 0.02 0.02 0.02 0.01 0.00 0.00 0.00 0.01 0.00 0.00 0.01 0.02 0.03 0.05 0.05 0.05 0.09 0.14 0.19 0.20 0.18 0.13 0.10 0.09 0.08 0.10 0.10 0.17 0.16 0.09 0.15 0.15
0.00 0.00 0.02 0.01 0.01 0.01 0.01 0.02 0.01 0.02 0.02 0.02 0.02 0.01 0.01 0.01 0.01 0.01 0.00 0.00 0.00 0.00 0.01 0.03 0.05 0.06 0.07 0.08 0.14 0.20 0.23 0.23 0.21 0.19 0.16 0.15 0.17 0.15 0.14 0.10 0.08 0.12 0.11
0.00 0.00 0.01 0.02 0.01 0.02 0.02 0.01 0.02 0.03 0.02 0.02 0.05 0.03 0.04 0.02 0.01 0.00 0.00 0.00 0.00 0.00 0.01 0.04 0.08 0.08 0.06 0.11 0.16 0.20 0.24 0.27 0.29 0.23 0.14 0.16 0.15 0.18 0.21 0.18 0.13 0.11 0.09
0.00 0.00 0.01 0.02 0.04 0.07 0.04 0.03 0.04 0.04 0.02 0.03 0.04 0.04 0.05 0.02 0.01 0.01 0.00 0.00 0.00 0.01 0.02 0.04 0.09 0.11 0.09 0.10 0.13 0.15 0.16 0.22 0.28 0.12 0.03 0.08 0.12 0.16 0.26 0.28 0.16 0.11 0.09
0.01 0.01 0.03 0.06 0.13 0.15 0.09 0.08 0.11 0.06 0.05 0.05 0.05 0.05 0.06 0.03 0.05 0.02 0.00 0.01 0.01 0.01 0.02 0.02 0.04 0.09 0.12 0.13 0.13 0.12 0.13 0.25 0.20 0.04 0.01 0.02 0.07 0.18 0.25 0.31 0.21 0.12 0.09
0.02 0.04 0.08 0.12 0.19 0.20 0.10 0.11 0.16 0.10 0.08 0.06 0.03 0.05 0.06 0.04 0.04 0.01 0.01 0.03 0.02 0.01 0.01 0.01 0.03 0.06 0.10 0.14 0.14 0.15 0.19 0.16 0.04 0.02 0.02 0.01 0.06 0.20 0.22 0.20 0.17 0.12 0.08
0.02 0.04 0.09 0.16 0.17 0.16 0.13 0.15 0.21 0.14 0.12 0.06 0.03 0.05 0.05 0.04 0.04 0.01 0.01 0.02 0.02 0.02 0.01 0.01 0.01 0.02 0.04 0.07 0.08 0.11 0.13 0.06 0.03 0.03 0.04 0.05 0.10 0.19 0.16 0.17 0.22 0.15 0.07
0.02 0.03 0.09 0.12 0.12 0.14 0.16 0.20 0.23 0.23 0.16 0.05 0.03 0.05 0.04 0.03 0.03 0.02 0.02 0.02 0.02 0.01 0.01 0.01 0.01 0.00 0.00 0.01 0.03 0.05 0.08 0.03 0.01 0.02 0.03 0.08 0.12 0.14 0.14 0.15 0.19 0.17 0.13
0.04 0.03 0.08 0.08 0.08 0.12 0.18 0.18 0.25 0.33 0.18 0.05 0.03 0.05 0.05 0.04 0.03 0.02 0.01 0.01 0.01 0.01 0.00 0.00 0.01 0.00 0.00 0.00 0.02 0.04 0.06 0.03 0.00 0.01 0.01 0.08 0.13 0.13 0.19 0.19 0.16 0.17 0.19
0.03 0.01 0.02 0.03 0.05 0.09 0.12 0.17 0.24 0.45 0.33 0.07 0.05 0.05 0.06 0.04 0.03 0.02 0.00 0.00 0.01 0.01 0.00 0.00 0.00 0.00 0.00 0.01 0.04 0.05 0.04 0.01 0.00 0.00 0.00 0.04 0.09 0.07 0.10 0.12 0.12 0.12 0.14
0.00 0.00 0.00 0.01 0.01 0.03 0.08 0.16 0.26 0.38 0.37 0.14 0.07 0.05 0.05 0.03 0.05 0.03 0.00 0.00 0.01 0.00 0.00 0.00 0.00 0.00 0.00 0.01 0.03 0.02 0.00 0.00 0.00 0.00 0.00 0.01 0.01 0.02 0.03 0.03 0.02 0.03 0.05
0.00 0.00 0.00 0.00 0.01 0.01 0.01 0.08 0.14 0.15 0.19 0.09 0.06 0.04 0.02 0.03 0.04 0.01 0.00 0.00 0.01 0.00 0.00 0.00 0.00 0.00 0.00 0.00 0.00 0.00 0.00 0.00 0.00 0.00 0.00 0.00 0.00 0.00 0.00 0.00 0.00 0.00 0.00
0.00 0.00 0.00 0.00 0.00 0.00 0.02 0.05 0.08 0.09 0.11 0.09 0.05 0.03 0.02 0.02 0.01 0.00 0.00 0.01 0.01 0.00 0.00 0.00 0.00 0.00 0.00 0.00 0.00 0.00 0.00 0.00 0.00 0.00 0.00 0.00 0.00 0.00 0.00 0.00 0.00 0.00 0.00
0.00 0.00 0.00 0.00 0.00 0.00 0.02 0.06 0.10 0.16 0.14 0.08 0.03 0.01 0.00 0.01 0.00 0.00 0.00 0.00 0.01 0.01 0.00 0.00 0.00 0.00 0.00 0.00 0.00 0.00 0.00 0.00 0.00 0.00 0.02 0.01 0.01 0.01 0.01 0.01 0.00 0.00 0.00
0.00 0.00 0.00 0.00 0.00 0.00 0.01 0.02 0.07 0.22 0.23 0.17 0.07 0.01 0.00 0.01 0.00 0.00 0.00 0.00 0.00 0.01 0.00 0.00 0.00 0.00 0.00 0.01 0.01 0.00 0.00 0.00 0.00 0.00 0.01 0.03 0.04 0.05 0.03 0.03 0.03 0.01 0.01
0.00 0.00 0.00 0.00 0.00 0.00 0.00 0.01 0.04 0.07 0.11 0.16 0.09 0.02 0.01 0.01 0.00 0.00 0.00 0.00 0.00 0.00 0.01 0.00 0.00 0.00 0.01 0.01 0.01 0.00 0.00 0.00 0.00 0.00 0.01 0.02 0.05 0.09 0.08 0.10 0.09 0.04 0.04
0.00 0.00 0.00 0.00 0.00 0.00 0.00 0.00 0.02 0.04 0.07 0.10 0.08 0.02 0.01 0.02 0.02 0.00 0.00 0.00 0.02 0.02 0.02 0.01 0.00 0.00 0.00 0.01 0.00 0.00 0.00 0.00 0.00 0.00 0.00 0.01 0.03 0.10 0.17 0.22 0.22 0.18 0.12
0.00 0.00 0.00 0.00 0.00 0.00 0.00 0.00 0.00 0.01 0.04 0.09 0.11 0.06 0.03 0.06 0.06 0.03 0.03 0.05 0.05 0.03 0.03 0.02 0.00 0.00 0.00 0.00 0.00 0.00 0.00 0.00 0.00 0.00 0.00 0.00 0.00 0.04 0.11 0.19 0.29 0.35 0.29
0.01 0.00 0.00 0.00 0.00 0.00 0.00 0.00 0.00 0.01 0.04 0.08 0.10 0.09 0.15 0.23 0.19 0.12 0.13 0.13 0.11 0.08 0.05 0.03 0.02 0.01 0.00 0.00 0.00 0.00 0.00 0.00 0.00 0.00 0.00 0.00 0.00 0.00 0.01 0.03 0.11 0.13 0.21
0.06 0.02 0.00 0.00 0.01 0.01 0.01 0.02 0.01 0.01 0.03 0.05 0.08 0.19 0.47 0.55 0.42 0.32 0.30 0.22 0.15 0.16 0.15 0.13 0.07 0.03 0.01 0.01 0.00 0.00 0.00 0.00 0.00 0.00 0.00 0.00 0.00 0.00 0.00 0.00 0.00 0.01 0.08
0.08 0.03 0.00 0.00 0.01 0.02 0.03 0.03 0.02 0.03 0.03 0.05 0.08 0.14 0.31 0.45 0.41 0.39 0.41 0.35 0.24 0.20 0.23 0.24 0.16 0.10 0.05 0.02 0.02 0.01 0.00 0.00 0.00 0.00 0.00 0.00 0.00 0.00 0.00 0.00 0.00 0.01 0.01
0.02 0.02 0.02 0.01 0.04 0.09 0.12 0.13 0.15 0.13 0.09 0.07 0.08 0.13 0.21 0.27 0.27 0.26 0.38 0.40 0.30 0.24 0.25 0.30 0.24 0.19 0.13 0.07 0.09 0.10 0.04 0.02 0.01 0.00 0.00 0.00 0.00 0.00 0.00 0.00 0.00 0.00 0.00
0.01 0.03 0.07 0.13 0.21 0.32 0.42 0.44 0.36 0.27 0.22 0.17 0.14 0.17 0.24 0.29 0.24 0.22 0.29 0.31 0.23 0.20 0.25 0.30 0.28 0.33 0.34 0.23 0.23 0.30 0.20 0.13 0.10 0.03 0.00 0.00 0.00 0.00 0.00 0.00 0.00 0.00 0.00
0.08 0.14 0.24 0.35 0.48 0.58 0.66 0.59 0.44 0.37 0.30 0.26 0.24 0.25 0.23 0.23 0.20 0.14 0.13 0.14 0.12 0.11 0.13 0.16 0.23 0.38 0.52 0.48 0.38 0.35 0.29 0.21 0.15 0.09 0.02 0.00 0.00 0.00 0.00 0.00 0.00 0.00 0.00
0.23 0.35 0.45 0.64 0.76 0.83 0.77 0.62 0.53 0.40 0.32 0.26 0.25 0.28 0.29 0.23 0.18 0.14 0.11 0.10 0.10 0.09 0.07 0.08 0.14 0.26 0.43 0.56 0.52 0.41 0.31 0.23 0.14 0.09 0.06 0.02 0.00 0.00 0.00 0.00 0.00 0.00 0.00
0.47 0.69 0.80 0.86 0.90 0.83 0.71 0.59 0.52 0.48 0.41 0.32 0.30 0.32 0.26 0.16 0.12 0.12 0.11 0.11 0.10 0.08 0.04 0.05 0.11 0.14 0.21 0.31 0.35 0.28 0.24 0.23 0.23 0.18 0.13 0.09 0.04 0.01 0.00 0.00 0.00 0.00 0.00